Location: Pl�tzky
(52.0521°N, 11.8020°E)
Time: 02:13:09
(UTC+00:00)

Cosmos 1624 Rocket - Pass Details

Date: 22 November 2019
Orbit: 756 x 785 km, 74.0° (Epoch: 12 December)

Event Time Altitude Azimuth Distance (km) Brightness Sun altitude
Rises 16:39:15 0° 334° (NNW) 3,288 7.4 -12.9°
Reaches altitude 10° 16:41:39 10° 333° (NNW) 2,356 6.7 -13.2°
Maximum altitude 16:47:01 81° 248° (WSW) 802 4.2 -14.0°
Drops below altitude 10° 16:52:20 10° 161° (SSE) 2,334 6.5 -14.8°
Sets 16:54:42 0° 161° (SSE) 3,255 7.2 -15.1°
